STARLINK-1672, 46537

Orbit data source: Space-Track

STARLINK-1672, 46537 is a payload satellite owned by SpaceX/Seattle (US) in LEO that was launched on Tue, 06 Oct 2020 UTC via an FALCON 9 launch vehicle from the Air Force Eastern Test Range (AFETR). Payloads include a variety of satellites, spacecraft, and rockets equipped with specific instruments for various scientific and technological missions. These include communications satellites like Starlink; space stations such as the ISS; scientific satellites like the Hubble; Earth observation satellites from companies like Planet Labs, Umbra, and HawkEye 360; GPS; miniature CubeSats for education and research; and military/defense satellites.

Loading next visibility...
STARLINK-1672 details
Identifier
46537, 2020-070F
Orbit
LEO
Last TLE update17 hours ago
Origin
Flag of USSpaceX/Seattle (US)
ManufacturerSpaceX/Seattle
MissionOperational Commercial Communications
Bus & MotorSTARLINK, Unknown motor
Mass260 kg wet, ~248 kg dry
Launch date (UTC)
2020-10-06 (4 years ago)
Launch vehicle
FALCON 9
Launch site
Air Force Eastern Test Range (AFETR)
Object type
Payload
Rocket body
Debris
Shape & HBRBox + 1 Pan, 8.86 m
Radar Cross Section13.562 m², Large (>1 m²)

Expand to show TLE details & history

TLE from 17 hours ago
0 STARLINK-1672
1 46537U 20070F   24338.64647244  .00021771  00000-0  14763-2 0  9992
2 46537  53.0543  86.3179 0001555  89.3719 270.7448 15.06390534230018
Epoch: 2024-12-03T15:30Z
Definitive object data (Epoch: 2024-12-03T15:30:55.218Z)
Latitude-0.00005°
Longitude140.6348°
Altitude548.106 km
Speed7.589 km/s
True Right ascension05h 45m 16s
True Declination0° 00' 00"
Sunlit
Object was in full shadow at TLE epoch
Visualization TLE readout
Latitude-4.11673°
Longitude134.27597°
Altitude548.771 km
Speed7.588 km/s
Apparent Right ascension02h 43m 25s
Apparent Declination-55° 36' 59"
Sunlit
Object is in full shadow
Visualization observer readout
Local Sidereal Time06:54:42
Azimuth212.176° SW
Elevation-19.371°
Doppler factor1
Orbital elements
Apogee altitude548.588 km
Perigee altitude546.434 km
Semi-major axis6,925.648 km
Eccentricity0.0001555
Inclination53.0543°
RAAN86.3179°
Arg. of periapsis89.3719°
True anomaly270.72698°
Mean anomaly270.7448°
Eccentric anomaly270.73589°
Mean motion3.76576 °/min
BSTAR0.0014763
Orbital period95.6 mins
Loading maneuver chart data...
Loading historical data...
Loading historical data...
Loading historical data...
Loading historical data...
Loading historical data...
Loading historical data...
Loading historical data...

STARLINK-1672 Visibility forecast

Observer location: undefined°, undefined

Span
Click to sort rows by Start time (UTC) header in descending order
Start Az.
Max El. time (UTC)
Max El. Az.
Max El.
End time (UTC)
End Az.
6 mins2024-12-04 09:10:29.248Z187.789° SSW2024-12-04 09:13:29.248Z139.678° SSE24.268°2024-12-04 09:16:29.248Z79.256° E
6 mins2024-12-04 10:50:29.248Z261.097° W2024-12-04 10:53:29.248Z339.501° N34.182°2024-12-04 10:56:29.248Z36.635° NE
6 mins2024-12-04 15:52:29.248Z334.041° NNW2024-12-04 15:55:29.248Z44.283° NE27.821°2024-12-04 15:58:29.248Z93.281° ESE
5 mins2024-12-04 17:32:29.248Z282.911° WNW2024-12-04 17:34:29.248Z230.702° WSW32.775°2024-12-04 17:37:29.248Z162.654° S
|